Terminal Aerodrome Forecast
Issued by NWS

Home | Current Version | Previous Version | Text Only | Print | Product List | Glossary On
Versions: 1 2 3 4 5 6 7 8 9 10 11 12 13 14 15 16 17 18 19 20
000
FTUS45 KABQ 201100 RRA
TAFROW
TAF
KROW 201140Z 2012/2112 36005KT P6SM SCT005 OVC010
      TEMPO 2012/2014 5SM BR OVC007
     FM201500 36005KT 6SM BR SCT002 OVC015
     FM201800 36010KT P6SM SCT015 BKN040
     FM210500 36005KT P6SM VCFG SCT004 OVC040=

USA.gov is the U.S. government's official web portal to all federal, state and local government web resources and services.